Tracking 29528 objects as of 12-Sep-2024
HD Live streaming from Space Station
objects crossing your sky now

FENGYUN 1C DEB

Track FENGYUN 1C DEB now!
10-day predictions


NORAD ID: 31923
Int'l Code: 1999-025CMA
Perigee: 840.0 km
Apogee: 1,296.4 km
Inclination: 98.4 °
Period: 106.4 minutes
Semi major axis: 7439 km
RCS: 0.0082 m2 (small)
Launch date: May 10, 1999
Source: People's Republic of China (PRC)
Launch site: Taiyaun Space Center, China (TSC)

Note: This is SATELLITE DEBRIS
Your satellite tracking list
Your tracking list is empty




NASA's NSSDC Master Catalog

Two Line Element Set (TLE):
1 31923U 99025CMA 24256.38157471  .00002799  00000-0  31509-2 0  9995
2 31923  98.4113  50.6694 0306738  52.9463 309.9313 13.53046374574585
Source of the keplerian elements: AFSPC